Theta_e
334 333 332 331 332 332 332 332 333 330 323 317 316 318 320 321 324 328 332 334 333 333 332 331 332 332 332 331 330 331 331 331 332 331 330 328 327 326 325 323 316 310 309 308 307 308 309 311 313 314 316 317 319 320 320 319 319 319 320 320 320 320 321 321 321 321 321 321 321 321 321 321 320 320 320 320 319 320 321 322 321 321 321 321 321
333 332 332 331 331 331 332 332 333 332 326 321 317 317 320 321 322 326 331 334 333 332 332 332 332 332 333 332 331 331 331 332 332 331 331 329 328 327 327 326 320 311 308 308 307 308 310 313 315 316 317 319 320 320 320 320 319 320 320 320 320 320 321 321 321 320 320 321 321 321 322 321 320 319 320 321 320 320 321 321 321 321 321 321 321
333 332 331 331 331 331 331 332 333 333 330 326 321 320 324 324 322 322 328 333 333 332 332 332 332 333 333 332 332 331 331 332 333 332 331 330 329 328 327 328 325 315 307 307 308 309 312 314 316 317 319 320 321 321 320 320 320 320 320 320 320 321 321 321 320 320 320 320 321 321 321 321 320 318 319 320 320 320 321 321 321 322 321 321 321
332 332 330 330 330 330 331 331 332 333 332 331 327 324 326 328 325 323 325 328 332 333 332 332 332 333 333 332 332 332 331 332 332 332 331 329 329 330 328 328 326 315 307 308 308 311 314 316 317 318 321 322 322 321 320 320 320 320 320 320 320 321 321 321 320 318 317 319 321 321 321 321 319 318 319 320 320 320 321 322 321 321 321 321 321
330 330 329 329 329 330 330 331 331 332 332 332 331 328 327 328 327 326 325 325 330 333 332 332 332 332 333 332 332 332 331 331 331 331 330 330 330 330 329 329 325 313 308 309 309 313 316 316 318 320 322 323 322 322 321 321 321 321 320 320 321 321 321 321 320 316 314 317 319 320 320 320 319 318 319 321 321 321 322 322 322 322 319 316 316
330 329 329 329 329 329 329 330 331 331 331 331 331 331 329 328 328 328 328 328 330 332 333 332 332 332 332 331 331 331 331 330 331 331 331 330 330 330 329 329 326 316 310 311 312 315 317 317 319 322 323 324 323 322 321 321 321 321 320 321 321 321 321 322 321 315 311 315 318 319 319 319 319 319 321 322 322 323 323 323 323 323 321 317 314
330 330 330 330 330 329 327 328 330 331 331 331 331 331 331 330 330 329 329 329 329 331 332 332 332 331 331 331 330 330 331 330 330 331 331 331 330 330 329 329 328 323 315 312 315 317 317 319 321 323 325 325 325 322 321 321 321 321 320 321 322 322 322 322 322 316 311 314 317 318 320 319 319 320 321 322 322 323 323 323 323 323 323 321 317
332 331 330 330 330 329 328 327 329 331 332 332 331 331 331 331 331 331 330 330 329 329 331 332 332 331 331 330 330 330 330 330 331 331 330 330 330 330 330 329 328 328 322 315 316 319 319 320 322 324 326 327 326 324 322 320 321 322 321 321 322 322 323 323 323 319 313 316 319 318 320 320 319 320 320 321 322 323 323 323 323 323 323 321 318
333 333 332 331 331 330 329 328 329 330 332 332 331 331 331 331 331 331 331 331 330 328 328 331 333 332 330 331 331 330 330 331 331 331 330 330 330 329 330 329 328 329 327 321 320 322 321 322 323 325 327 327 327 326 325 322 320 321 322 322 322 323 324 324 324 321 315 317 320 319 319 320 320 321 321 321 322 322 323 323 323 323 322 321 317
333 333 333 333 332 331 330 329 328 329 330 331 331 331 331 331 331 331 331 331 331 328 326 329 332 331 331 330 331 330 331 331 331 330 330 330 329 329 329 329 328 328 328 327 326 326 325 323 324 326 327 327 327 327 327 324 321 321 321 322 322 323 324 325 325 323 319 317 319 319 318 320 321 321 322 321 322 323 323 323 323 322 322 320 316
333 333 333 333 333 332 331 330 329 328 328 329 331 331 330 330 330 329 330 330 330 329 326 328 331 331 331 331 331 331 331 332 332 330 328 329 329 329 329 329 329 328 328 329 329 329 328 326 325 325 326 326 327 327 327 327 325 323 322 322 322 322 323 325 325 325 323 318 317 317 316 319 321 321 322 322 322 323 322 322 322 321 321 319 313
332 332 332 332 332 333 332 331 330 329 328 328 329 330 330 330 329 328 328 328 329 329 326 325 328 330 330 330 331 331 331 331 331 330 328 328 328 329 329 329 329 328 328 328 330 330 329 328 327 325 325 325 326 326 327 328 327 326 325 324 323 322 323 325 325 325 324 319 315 315 313 315 320 321 321 322 322 323 322 321 320 319 318 315 308
333 333 333 333 332 332 332 331 331 330 329 329 329 330 330 330 330 329 328 328 329 330 328 326 327 329 330 330 330 331 331 331 331 331 329 328 329 329 329 329 328 328 328 328 329 330 329 328 328 327 325 324 324 324 326 327 328 327 327 326 324 324 324 325 326 325 325 322 314 312 312 310 315 320 321 322 322 321 321 319 316 314 312 307 302
334 333 333 333 332 332 332 332 332 332 330 330 330 330 330 330 330 330 329 329 329 330 330 329 328 329 331 331 331 331 331 331 331 331 330 329 329 330 329 329 328 328 328 328 328 329 329 328 328 327 326 324 322 322 324 326 327 327 327 327 326 325 325 325 326 325 325 324 314 308 311 308 308 313 316 318 319 318 317 313 310 307 304 302 300
334 334 333 333 333 333 333 333 332 332 332 331 330 330 330 330 330 330 330 330 329 329 330 330 330 330 331 331 331 331 330 330 330 330 330 330 329 330 329 329 328 328 328 328 328 328 329 329 328 328 327 325 322 321 323 324 326 327 325 326 326 326 326 325 326 326 325 325 313 305 309 307 304 305 307 309 311 311 309 306 304 302 301 301 301
333 333 333 334 333 333 333 333 333 333 333 332 332 331 331 331 330 330 331 331 330 329 329 330 331 331 332 331 330 330 330 329 329 329 329 330 329 329 329 329 328 328 328 328 328 328 328 329 329 328 327 327 324 322 322 324 325 325 323 325 325 325 326 326 326 325 326 324 313 304 306 306 304 303 303 304 304 304 303 302 301 301 301 301 301
332 332 333 334 333 333 333 334 334 334 333 333 332 332 332 332 331 331 331 331 331 330 329 330 330 331 331 331 330 330 330 329 329 328 328 329 329 328 329 329 328 328 328 328 328 328 328 328 329 328 327 327 327 325 323 323 324 322 321 323 324 324 325 326 326 325 327 324 312 304 305 304 303 303 302 302 302 302 301 301 301 300 301 301 301
332 331 332 332 332 332 332 333 334 334 334 333 333 333 332 332 332 331 331 331 330 330 330 330 330 330 330 330 330 330 329 329 329 329 328 328 328 329 329 329 329 329 329 329 328 329 328 328 330 329 327 327 327 326 324 323 322 318 318 320 322 323 323 325 326 325 326 324 312 305 305 304 303 303 302 302 301 301 301 301 301 301 302 302 302
332 331 331 332 332 332 333 333 334 334 334 333 333 332 331 331 331 331 331 330 330 330 330 329 330 330 330 330 329 328 329 329 329 328 328 327 327 328 329 329 329 329 329 329 329 329 328 328 329 329 327 327 328 328 325 323 319 316 316 318 318 318 320 323 325 325 326 322 311 306 305 304 303 303 302 302 301 301 301 301 301 302 303 303 303
332 331 331 332 331 332 332 333 334 334 333 332 331 331 330 330 330 331 332 331 331 331 331 330 330 330 329 330 329 328 327 328 329 329 328 328 328 328 329 329 330 330 329 330 329 329 329 328 329 329 327 327 328 328 327 325 321 318 317 317 315 314 318 323 324 325 325 320 310 306 305 304 303 302 302 302 301 301 301 301 302 303 303 303 303
331 331 332 331 331 332 332 332 333 333 332 332 331 330 330 331 331 331 331 331 331 331 331 331 330 330 329 329 330 329 328 327 328 329 329 329 328 327 328 329 330 330 330 330 330 329 329 329 329 329 328 328 328 328 327 326 324 323 322 318 312 312 318 322 323 325 323 317 310 306 305 304 303 302 302 302 301 301 301 302 303 303 303 303 303
331 331 332 332 331 332 332 332 333 332 332 332 332 331 331 331 331 331 331 330 331 331 330 330 330 330 330 330 330 330 329 327 328 329 329 329 329 328 328 328 329 329 329 329 329 329 330 330 329 329 328 328 328 328 327 327 326 326 325 318 310 312 317 320 322 324 320 314 310 306 305 304 303 302 302 301 301 301 301 303 303 303 303 303 303
331 331 331 331 331 331 332 332 332 332 332 332 332 331 331 331 330 330 330 331 330 330 330 330 330 330 330 330 330 329 329 329 329 329 329 329 329 329 329 328 328 328 328 328 329 329 329 330 329 328 328 328 328 328 328 327 326 327 326 319 311 312 316 317 321 321 316 312 309 305 305 304 302 302 302 301 301 301 302 303 303 303 303 303 303
330 330 330 330 330 331 331 331 332 332 332 331 331 331 330 330 329 330 330 329 329 329 329 329 330 330 330 330 329 329 329 329 330 329 328 328 328 329 329 329 328 327 327 328 329 329 329 330 329 328 328 328 328 328 328 327 327 326 326 321 313 313 315 315 316 314 313 311 307 305 305 303 302 302 302 301 301 301 302 303 303 303 302 303 303
329 330 330 330 330 330 331 331 331 331 331 331 331 331 330 329 329 330 330 328 328 328 328 329 329 329 330 329 329 329 329 329 330 330 329 329 328 329 329 329 329 328 327 327 328 329 329 329 329 328 328 328 328 328 327 327 326 326 326 321 315 314 315 313 309 308 310 309 305 305 304 302 302 302 301 301 301 302 303 303 303 302 302 303 304
327 328 329 329 330 330 330 330 331 331 331 331 330 330 330 329 329 329 329 328 328 327 327 328 329 329 329 329 329 329 329 328 328 330 330 330 329 329 329 328 329 329 328 327 328 328 329 329 329 328 328 328 328 328 328 327 327 326 325 321 317 316 315 314 308 305 308 307 305 305 304 302 303 302 301 301 301 302 303 303 303 302 302 303 304
325 326 326 328 329 329 329 330 330 330 330 330 330 329 329 329 329 329 329 328 328 327 327 327 328 328 329 329 329 328 328 327 327 328 329 331 330 329 329 328 328 330 329 328 328 328 328 328 328 328 328 328 328 328 328 328 327 327 324 322 320 318 316 314 309 305 306 306 305 305 303 303 302 301 301 301 301 302 303 303 303 302 302 303 304
322 323 324 325 326 327 328 329 329 330 330 330 329 328 328 329 329 329 329 328 328 328 327 327 327 327 328 328 328 327 327 328 328 327 327 329 330 330 329 328 328 328 329 329 329 328 327 328 329 329 328 328 328 328 328 328 328 327 325 322 322 321 320 317 312 307 305 305 306 305 303 303 302 302 302 301 301 302 303 303 303 302 302 303 304
319 320 321 321 323 324 326 327 328 329 329 329 329 328 327 328 328 328 328 328 328 328 328 327 327 327 327 327 327 327 327 328 329 328 327 328 329 330 330 329 328 327 328 328 328 326 326 327 328 329 329 328 328 328 328 328 328 327 325 323 322 322 322 321 315 309 306 305 306 305 303 303 303 302 301 301 301 302 303 303 302 302 302 303 304
315 316 316 317 318 320 322 324 326 327 327 328 328 328 328 327 327 327 327 328 328 328 328 328 328 328 328 327 326 326 327 328 329 329 329 329 329 330 330 329 329 328 328 328 327 326 324 326 327 329 329 328 328 328 328 328 328 327 326 324 322 322 323 322 317 309 306 305 306 305 303 303 302 302 301 302 301 302 303 303 302 302 302 302 304
314 315 315 315 316 316 318 320 322 324 325 326 327 327 327 327 327 326 326 326 327 327 327 327 328 328 327 327 326 325 325 327 328 329 329 329 329 329 330 330 329 329 329 328 327 327 325 325 327 328 329 329 328 328 328 328 328 328 326 325 323 322 323 323 318 309 305 306 306 305 303 303 302 302 302 301 301 302 303 303 302 302 302 302 304
313 314 314 315 315 315 315 315 317 318 320 322 324 324 325 326 326 326 326 325 326 326 327 327 327 326 327 327 327 325 325 327 328 328 329 329 329 329 329 329 329 329 329 329 328 327 326 326 327 328 328 329 328 328 329 328 328 328 327 326 325 323 323 323 320 313 306 305 306 305 303 303 303 302 302 302 302 302 302 302 302 302 302 302 304
312 312 312 313 313 314 314 314 314 315 316 317 319 321 322 323 324 325 325 325 325 326 327 327 326 326 326 327 327 326 326 327 327 328 328 329 329 329 329 329 329 329 329 330 329 328 327 327 327 328 328 328 328 328 328 329 328 328 327 327 326 324 323 323 322 318 309 305 306 305 303 303 303 302 302 302 302 302 302 302 302 302 302 302 305
311 311 311 311 312 312 313 313 314 314 314 315 316 317 319 320 321 322 323 324 325 326 326 326 325 325 326 327 327 327 327 327 327 327 327 328 329 329 330 330 329 329 329 329 330 329 328 326 327 328 328 328 328 328 328 328 329 328 327 327 327 325 324 323 323 321 315 307 305 306 304 303 303 303 302 302 302 302 302 302 302 302 302 302 304
309 309 310 310 311 311 312 313 313 313 313 314 315 315 316 317 318 319 320 322 323 324 324 325 325 325 326 326 326 327 327 327 327 327 327 327 328 329 329 329 329 329 328 329 330 329 327 325 326 328 328 328 328 328 328 328 328 328 327 327 327 326 324 324 323 323 320 310 305 306 305 303 303 303 303 302 302 302 302 302 302 302 302 302 303
308 308 308 309 309 310 311 311 311 311 311 311 312 313 314 314 315 316 317 319 320 321 322 323 324 325 325 325 326 327 327 327 327 327 327 327 327 328 329 329 329 329 329 329 330 328 326 326 327 328 328 328 328 328 328 328 328 328 328 327 327 326 325 324 323 323 321 312 306 306 306 304 303 303 303 303 302 302 302 302 302 302 302 302 302
306 307 307 308 308 308 309 309 308 308 309 309 310 310 311 312 313 314 315 316 318 319 320 321 323 324 325 326 326 326 327 327 327 327 327 326 326 328 329 330 330 330 329 329 329 328 327 326 326 327 328 329 328 328 328 328 328 327 327 326 327 326 325 324 324 323 321 313 306 306 307 305 303 303 304 303 303 302 302 302 302 302 302 301 302
304 305 305 306 307 307 307 307 307 307 307 307 308 308 309 310 311 312 313 314 316 318 319 321 322 323 325 326 326 326 326 327 328 327 327 326 327 329 330 330 330 330 330 330 329 328 327 324 323 326 328 329 328 328 328 328 328 327 327 326 325 325 325 324 323 323 321 314 307 305 307 306 304 303 303 304 303 303 302 302 302 301 302 302 301
303 303 303 304 305 305 306 306 306 306 306 307 307 307 308 308 309 310 311 312 313 315 317 319 321 322 323 324 325 325 326 326 327 327 326 326 327 328 329 330 329 330 330 330 329 327 325 323 322 325 328 329 328 328 327 328 327 327 327 326 325 324 324 323 323 322 321 316 309 306 306 306 305 303 303 304 304 304 303 302 302 302 302 301 301
302 302 302 302 303 303 304 304 304 305 305 306 306 306 307 307 308 308 309 310 311 313 315 317 319 320 321 322 323 324 324 326 327 327 327 326 326 327 328 329 329 329 329 329 328 326 324 323 323 325 328 328 328 328 327 327 326 325 325 326 325 325 324 323 323 322 320 317 311 306 306 306 305 303 302 303 304 304 303 303 302 302 302 302 301
301 301 301 301 301 302 302 303 303 304 304 304 304 304 305 306 307 308 309 309 310 312 313 315 316 318 319 320 322 323 324 325 326 327 327 326 326 326 326 327 328 328 328 329 328 327 326 326 326 326 328 327 328 328 327 326 326 326 326 324 324 324 323 323 323 321 319 316 310 306 306 306 306 304 302 303 304 304 304 303 303 303 302 302 302
299 300 300 300 300 301 301 302 302 302 303 303 303 303 304 305 306 307 308 309 310 311 312 313 314 316 317 319 320 322 323 324 326 327 327 327 326 326 326 327 327 327 327 328 328 328 328 328 327 327 328 328 328 328 327 327 326 326 325 324 323 323 323 322 322 320 318 315 309 306 306 306 306 305 303 303 303 304 304 305 305 304 304 303 302
298 298 299 299 300 300 300 300 301 301 301 301 301 302 303 304 305 306 307 307 308 309 310 311 312 314 316 317 319 321 322 324 325 325 326 326 326 325 326 326 326 326 326 327 327 328 328 328 327 327 327 326 326 327 327 327 326 326 326 325 324 323 322 322 322 320 318 315 310 307 306 306 306 306 304 303 303 304 304 305 306 306 305 304 304
298 297 297 298 298 299 299 299 300 300 300 300 300 301 302 303 304 305 305 306 307 307 308 309 311 312 314 316 318 319 321 322 323 324 325 326 326 325 325 326 326 326 326 326 326 327 327 328 327 327 326 324 323 325 327 326 326 326 326 325 325 324 323 323 322 322 320 316 311 309 308 308 307 307 306 305 304 303 304 305 305 306 306 306 305
298 297 297 297 297 298 298 299 299 299 299 299 299 300 300 301 302 303 304 305 305 305 306 307 309 310 311 313 316 318 319 320 322 323 324 325 325 325 325 325 326 326 326 326 326 326 326 326 327 327 327 324 322 324 326 326 326 326 325 325 325 324 324 324 324 323 322 318 313 311 311 311 309 308 307 306 305 304 303 304 305 305 305 306 306
298 297 297 296 297 297 297 298 298 299 299 299 298 299 299 300 301 302 303 303 303 304 304 305 306 307 309 310 312 315 317 319 320 321 323 324 325 325 324 325 326 326 326 326 326 327 326 325 325 327 327 325 323 323 325 326 326 325 325 325 325 324 324 324 324 323 322 321 317 313 313 313 311 309 307 306 306 305 303 303 304 305 305 305 305
295 295 296 296 296 297 297 297 298 298 298 298 298 298 298 299 299 300 301 302 302 302 303 303 304 305 306 307 309 310 313 315 316 318 320 323 325 325 324 324 325 326 326 325 324 325 326 326 325 326 326 325 324 324 325 327 326 325 325 325 325 325 324 323 322 320 319 320 318 315 314 314 312 310 309 307 306 305 305 306 307 307 307 306 305
294 294 294 295 296 296 297 297 297 298 298 298 298 298 298 298 298 299 299 300 301 302 302 302 302 303 304 305 306 308 309 311 313 315 318 320 323 325 325 325 325 325 325 324 323 323 325 327 326 326 327 327 326 326 326 326 326 326 325 324 323 323 323 322 321 319 317 318 318 315 314 314 313 312 311 309 309 308 308 309 310 310 309 307 305
294 294 293 293 294 295 296 297 297 297 297 298 298 298 298 298 298 298 298 298 299 300 300 301 301 301 302 303 304 306 308 309 311 313 315 318 321 323 324 325 325 325 324 324 324 324 325 324 324 325 326 326 327 326 325 326 326 326 326 324 321 321 321 320 321 321 318 318 318 316 315 315 314 313 313 312 311 310 310 310 310 310 309 308 306
294 294 293 293 293 293 295 297 297 297 297 298 298 297 297 297 297 297 297 297 298 298 299 299 299 300 300 301 302 303 305 307 308 310 312 315 318 320 322 324 325 324 322 322 323 324 323 321 319 321 325 326 326 325 325 326 326 326 326 325 323 322 321 320 321 321 320 318 318 317 315 315 315 314 314 313 312 311 311 311 310 310 309 308 306
294 293 293 293 293 293 293 295 296 296 297 297 297 297 297 297 297 297 297 296 297 297 297 298 298 299 299 300 301 302 303 304 306 308 309 311 315 317 320 322 324 323 321 320 321 322 324 322 318 319 322 323 322 323 325 326 326 326 326 325 324 324 323 322 321 320 319 319 318 316 314 315 315 314 314 313 312 311 311 311 310 309 309 309 309
Wind_Speed
8 8 8 7 7 7 8 9 8 8 9 10 12 13 12 13 13 11 10 10 10 10 9 7 6 5 6 8 8 10 12 11 11 14 15 14 14 12 11 11 11 10 8 6 5 5 4 4 3 3 2 1 1 2 3 3 4 4 5 4 5 5 5 5 6 5 5 6 7 8 10 10 11 13 14 14 15 16 16 15 16 17 17 17 17
9 9 9 9 7 7 7 9 9 9 9 9 12 14 14 14 15 13 11 11 11 10 9 6 5 5 7 8 9 12 14 12 12 14 15 15 14 12 11 12 11 10 8 7 6 5 5 4 4 3 2 2 2 2 3 4 4 4 4 4 5 5 5 5 5 5 4 5 7 8 9 9 10 13 14 14 14 15 15 15 15 16 16 16 16
9 10 10 9 8 7 7 8 9 9 10 10 10 13 14 14 15 15 14 13 12 11 9 6 5 6 8 11 12 13 15 15 14 15 17 15 13 12 13 13 13 10 8 7 7 6 5 5 4 4 3 3 3 3 3 4 5 5 5 5 5 4 5 5 5 4 4 5 6 7 8 9 10 13 13 13 14 14 14 14 14 14 14 14 15
9 10 9 9 9 8 8 8 9 10 10 10 11 12 13 14 15 15 16 16 14 13 11 8 7 9 11 14 15 15 17 18 16 15 16 14 12 13 14 14 14 10 8 8 7 7 6 6 5 4 4 4 3 3 4 4 5 5 5 5 5 4 5 5 5 4 4 5 6 7 8 9 11 14 13 14 14 14 14 13 13 13 13 13 14
9 9 9 9 9 9 9 8 8 9 11 11 12 12 13 13 13 14 15 16 16 14 13 11 10 12 14 14 15 16 16 17 16 14 14 13 12 13 14 15 13 10 8 8 8 7 7 6 6 5 5 4 4 4 4 5 5 6 6 6 5 5 5 5 5 4 4 5 6 8 9 10 13 15 15 14 14 13 13 12 11 11 12 12 13
9 8 8 9 10 11 10 9 9 10 11 11 13 14 14 14 13 14 16 17 17 15 16 15 13 14 16 16 17 18 17 17 17 15 13 14 14 14 14 14 12 9 9 9 8 8 8 7 6 6 5 5 5 5 5 5 5 5 6 6 5 5 5 5 4 4 4 4 6 9 11 12 14 15 14 13 12 12 12 11 10 10 10 11 11
8 9 9 8 9 11 11 11 10 11 11 11 13 14 15 15 15 16 18 18 18 17 17 19 18 17 18 18 18 19 18 19 19 17 15 14 15 15 15 13 11 10 9 9 9 8 8 8 7 7 6 6 5 5 5 5 5 6 6 6 5 4 4 4 4 4 5 4 7 11 12 12 13 13 12 12 12 11 11 11 9 9 9 9 9
9 9 10 9 9 10 11 12 12 13 13 13 14 15 16 16 17 18 19 19 19 18 19 21 22 21 19 19 20 20 19 19 20 20 18 16 15 15 15 13 12 11 10 10 9 9 9 8 9 8 8 8 7 7 6 6 6 6 6 6 5 4 4 3 3 4 5 6 8 11 12 12 12 11 11 11 11 11 11 10 10 9 9 7 7
9 10 10 10 11 10 11 12 13 15 15 16 15 15 16 17 18 19 19 19 19 19 20 22 25 23 21 21 22 21 20 20 21 21 21 19 16 16 15 14 13 12 11 12 11 10 10 10 10 9 9 10 9 8 8 7 6 6 6 6 5 4 4 3 2 3 5 7 8 10 11 11 11 10 11 10 11 10 9 9 9 9 8 6 6
10 11 11 11 12 12 12 13 14 15 16 17 17 17 18 19 19 18 19 20 20 21 22 23 24 24 22 23 24 23 22 22 22 22 22 21 19 17 16 15 14 14 13 14 14 12 11 11 11 10 11 11 11 10 10 9 8 7 7 6 6 5 5 5 3 2 4 6 6 8 9 10 11 10 10 10 10 10 8 8 8 7 6 5 5
12 12 12 13 13 14 13 13 14 15 16 18 18 18 19 19 19 18 19 21 21 21 22 23 24 24 23 23 25 25 24 23 23 23 23 23 21 18 16 15 15 15 14 15 15 14 12 12 12 12 12 12 12 12 11 11 10 9 8 7 6 6 6 7 5 4 4 5 6 8 8 10 11 11 11 11 10 9 8 8 7 6 5 5 4
13 12 13 13 14 15 15 14 15 16 17 18 19 19 19 20 19 19 20 21 21 21 22 23 24 24 24 25 26 27 26 25 23 23 23 23 23 21 19 16 15 16 16 15 16 15 14 13 13 12 13 13 13 13 13 13 12 12 11 9 7 7 8 8 7 6 5 5 7 8 8 10 12 12 12 11 11 10 9 8 6 5 5 5 5
14 14 14 15 15 15 16 16 16 17 18 18 19 20 21 21 21 20 20 21 21 21 22 23 24 25 25 26 27 27 28 26 25 24 23 23 24 23 21 18 17 17 17 16 16 16 16 14 13 13 13 14 14 15 15 15 14 14 13 11 9 9 9 9 8 8 8 7 7 8 9 11 12 13 12 12 11 10 9 7 6 6 6 6 6
14 14 15 15 15 15 16 16 16 18 19 19 19 21 22 22 23 23 22 21 22 23 23 23 24 25 25 25 26 26 27 27 27 26 24 24 25 24 23 22 20 19 19 19 17 17 17 16 15 14 14 15 15 16 16 16 16 16 15 14 12 11 11 11 10 10 10 9 8 8 9 11 12 13 13 12 11 10 8 7 7 7 7 7 8
13 14 15 16 16 16 16 16 16 17 18 19 20 21 22 23 24 24 24 23 24 25 24 24 25 25 24 24 24 24 25 27 28 27 26 25 25 25 25 25 24 21 20 21 20 18 17 17 17 16 15 16 16 17 17 17 17 17 16 16 15 13 13 12 12 12 11 11 10 8 9 12 12 12 13 12 11 11 9 8 8 8 9 9 10
14 14 16 17 17 17 17 17 17 17 18 19 19 20 21 22 24 25 26 26 25 25 25 26 27 26 24 22 21 20 22 25 27 26 26 26 27 27 28 28 26 23 22 24 23 21 19 18 18 18 17 17 17 17 18 18 18 17 18 18 16 16 15 14 14 13 13 13 11 9 9 11 13 12 12 12 11 11 10 9 9 9 10 11 12
14 15 17 18 18 18 18 18 18 18 19 19 19 20 20 21 23 24 26 27 26 26 27 28 29 28 27 24 19 18 21 24 25 25 25 26 27 28 29 30 28 25 25 26 25 23 21 20 19 19 18 17 18 18 18 18 19 18 19 19 18 18 17 16 15 15 15 14 12 11 10 11 12 12 12 12 12 11 11 10 10 11 12 13 13
14 15 17 18 18 19 20 20 19 20 21 20 20 21 22 22 22 24 26 26 26 28 29 29 29 30 29 28 24 23 24 23 22 22 22 23 25 27 30 31 30 28 27 27 27 26 24 22 21 21 20 18 19 19 19 19 19 19 19 19 19 19 18 17 17 16 17 16 13 12 11 11 12 12 12 12 12 12 12 11 12 12 14 14 13
14 15 17 18 19 20 22 22 21 21 21 21 21 21 22 22 22 24 25 25 25 28 29 29 30 31 30 30 30 30 30 28 24 22 21 20 22 25 29 32 32 31 30 29 29 28 26 25 23 22 21 20 19 20 21 21 20 19 19 19 19 20 20 19 18 18 18 16 15 14 13 13 13 13 13 13 13 14 13 14 14 14 15 14 14
13 15 18 19 20 21 23 23 22 21 21 22 22 21 22 22 22 23 24 26 27 28 29 28 29 32 31 31 32 32 33 34 31 27 24 22 21 22 26 32 34 33 32 31 30 29 27 27 25 23 23 21 19 20 21 22 21 20 20 19 19 20 20 20 20 20 19 17 16 15 15 14 14 13 13 14 14 15 15 16 16 16 15 14 14
11 12 14 17 20 21 23 23 22 20 20 22 22 21 22 23 23 24 24 26 27 27 28 29 30 31 31 32 33 33 33 34 34 32 30 27 25 26 25 28 34 36 35 33 32 31 30 28 26 25 25 23 21 20 21 22 22 22 21 20 20 20 20 21 22 22 20 18 17 17 16 16 15 15 14 15 15 16 17 17 18 17 16 15 15
12 12 12 13 15 18 19 20 20 20 20 20 21 22 22 23 24 25 26 27 27 27 28 30 29 29 30 31 33 33 32 34 35 35 32 30 30 30 27 27 30 33 33 35 34 33 32 30 28 27 27 25 23 22 23 23 23 23 22 20 20 20 21 22 22 22 20 19 18 18 16 16 16 15 15 16 17 18 18 18 18 17 16 15 15
13 15 15 14 13 14 15 16 17 17 18 18 19 21 22 22 23 23 25 27 27 27 29 30 30 30 30 30 32 32 33 34 36 36 35 35 34 33 31 29 29 29 28 31 33 35 34 33 30 29 29 27 25 24 24 23 23 23 22 21 21 21 22 22 22 22 21 20 19 18 16 16 16 16 16 17 19 19 20 19 18 17 16 16 15
10 13 16 16 15 14 15 16 16 16 16 17 18 19 21 22 22 22 24 25 25 25 27 28 30 32 31 30 30 30 33 35 36 37 38 38 37 37 36 33 31 30 28 27 30 34 37 35 31 30 30 28 26 26 25 24 24 24 23 22 22 22 22 22 22 22 22 21 20 18 17 17 17 17 17 19 20 21 21 20 19 18 16 16 16
10 11 13 13 13 14 14 15 16 16 17 18 19 19 20 21 22 23 24 24 23 23 24 25 27 29 29 30 30 29 30 32 34 36 38 38 39 39 37 34 33 32 29 26 28 31 35 35 33 31 31 29 28 28 27 25 25 25 24 24 23 23 23 22 22 22 22 22 20 19 18 18 18 18 18 20 21 22 22 21 20 18 17 17 17
10 11 12 12 12 13 13 13 14 15 14 15 17 18 19 20 21 22 22 23 23 23 23 23 24 24 26 28 30 30 29 29 29 32 37 39 40 39 36 34 34 32 30 28 27 29 32 33 34 34 33 31 30 30 30 28 26 26 26 24 22 23 23 23 22 22 22 22 21 20 19 18 19 19 20 21 23 23 23 22 21 19 18 18 18
13 13 14 14 14 14 15 15 15 15 14 13 15 16 17 19 20 21 21 22 23 23 23 23 23 23 23 25 28 29 30 28 27 27 33 39 41 40 37 35 34 32 30 31 30 31 32 31 33 36 35 33 32 32 32 30 27 26 27 26 23 22 23 23 23 23 23 23 22 21 20 20 20 20 21 22 24 24 24 23 22 20 19 19 18
16 17 18 18 18 18 18 18 18 18 18 18 18 18 18 18 20 21 22 22 22 23 23 23 23 23 22 22 24 27 28 29 29 27 28 34 39 41 40 39 36 32 30 31 32 34 33 31 32 35 37 35 33 33 33 32 30 27 28 28 25 24 23 23 24 24 24 24 23 22 22 21 21 22 22 23 25 25 25 24 22 21 20 19 19
13 16 17 18 19 20 22 23 23 22 22 23 22 21 20 20 20 21 22 21 22 23 24 24 25 24 23 23 23 25 26 26 28 28 29 32 35 37 40 41 40 36 32 30 33 35 34 33 34 34 36 37 35 35 35 35 32 29 29 29 28 27 25 23 25 25 25 25 25 24 23 22 22 23 23 24 26 26 25 24 23 21 20 20 19
8 10 12 13 14 16 19 22 24 24 25 25 24 24 24 23 23 23 23 22 23 24 24 25 25 25 25 24 24 25 25 24 25 27 29 33 35 36 38 40 41 41 37 33 33 35 33 33 35 35 35 37 37 37 37 37 34 30 29 29 29 28 26 24 24 26 27 27 26 25 24 24 24 24 24 25 26 26 26 25 24 22 21 21 20
7 7 8 9 9 11 15 18 20 21 22 24 25 26 25 25 25 25 26 25 25 26 25 25 25 25 25 24 24 25 25 24 24 24 26 29 33 35 37 39 41 41 41 38 36 35 33 32 35 35 35 37 38 39 39 38 35 32 29 29 28 28 27 25 25 26 27 28 27 26 25 25 25 25 25 26 26 26 26 26 25 23 22 22 21
10 9 8 7 6 8 11 14 15 16 17 19 21 23 24 24 24 26 28 28 28 28 27 27 25 24 23 23 24 25 25 24 24 25 26 26 29 32 35 39 40 40 40 41 41 39 35 33 34 33 34 36 39 41 41 40 36 33 31 30 29 28 28 28 26 26 27 29 28 27 26 26 26 26 26 26 27 27 27 27 26 24 24 23 23
13 13 12 10 8 8 10 12 13 14 15 16 18 20 21 23 23 24 27 28 28 28 28 28 26 24 23 23 25 26 25 25 25 27 27 28 30 33 35 38 40 40 41 42 43 41 38 36 34 32 31 35 39 41 42 42 39 36 34 32 31 31 30 31 29 27 27 29 29 28 28 28 27 27 27 27 27 27 27 27 27 26 25 25 24
14 14 14 13 11 10 10 11 13 14 15 16 18 19 21 23 24 24 26 26 27 27 28 27 25 24 24 25 26 25 24 24 25 26 26 27 29 33 38 40 41 41 42 43 43 41 39 37 35 32 30 33 39 41 42 43 42 39 38 36 35 34 33 32 32 30 28 29 30 29 28 29 29 29 28 28 28 28 28 28 27 27 26 26 26
14 13 13 13 13 12 11 10 12 14 16 17 18 20 21 23 24 25 26 27 28 29 30 29 27 26 27 27 26 24 23 22 23 25 26 27 29 32 36 40 43 42 41 42 42 41 39 38 36 34 32 33 38 41 42 42 42 42 41 39 38 37 36 35 34 32 30 30 31 31 30 30 30 30 29 29 29 29 29 29 28 27 27 27 27
13 13 13 13 13 13 12 12 13 15 17 17 18 19 20 22 24 25 25 27 28 30 32 32 29 28 28 28 26 24 22 22 23 25 27 29 31 34 36 37 40 41 40 40 41 41 39 37 36 35 34 34 36 40 42 42 42 44 44 42 40 38 37 37 36 34 31 30 32 32 31 31 31 31 30 30 29 29 29 29 29 28 28 28 27
15 14 14 15 15 15 15 15 16 17 19 20 20 21 21 22 23 24 24 25 26 27 29 30 29 28 28 28 26 24 22 23 24 24 26 28 30 34 39 39 38 40 39 39 40 40 38 37 36 35 35 35 35 39 42 42 43 45 46 46 44 41 39 38 38 35 31 30 32 33 32 31 31 32 31 30 30 30 30 30 29 29 28 28 28
18 18 18 18 18 18 17 17 18 19 20 21 22 23 24 24 24 23 23 23 24 24 25 26 27 27 28 27 26 25 24 24 25 25 25 26 26 28 35 37 36 38 39 40 40 39 38 38 38 37 36 36 36 38 40 42 44 45 46 47 46 43 41 40 39 37 33 31 33 34 34 33 33 33 33 32 31 30 30 30 30 29 29 29 29
21 22 23 22 21 21 20 19 19 20 21 21 22 24 26 27 28 27 26 24 23 23 24 24 24 25 27 27 27 26 25 25 26 26 24 24 23 22 26 31 36 40 42 42 40 39 40 40 40 40 39 38 37 37 38 40 43 44 45 47 45 43 42 41 40 38 35 33 34 35 35 34 33 33 33 33 32 32 31 31 31 30 29 29 29
24 25 25 25 25 24 24 23 22 22 22 22 24 26 28 29 30 30 29 27 25 23 23 23 23 23 24 25 25 25 25 25 25 24 22 22 22 22 23 26 31 35 38 41 41 40 40 41 41 41 40 38 36 36 37 40 41 42 44 46 46 44 43 42 40 38 36 35 35 36 36 35 34 34 35 35 34 33 32 31 31 31 30 30 30
25 27 27 27 28 27 27 26 25 25 25 26 28 28 29 30 31 30 30 28 26 24 23 22 22 23 23 23 24 24 24 24 23 22 21 20 22 23 23 24 26 28 31 35 39 40 41 41 41 40 40 39 37 36 39 42 43 43 44 45 45 44 44 43 41 39 36 35 36 38 38 37 36 36 37 37 37 35 34 32 32 31 31 30 30
26 27 27 28 29 30 30 29 29 30 31 31 31 28 28 29 30 29 29 28 27 24 23 22 23 24 24 24 24 24 25 24 24 23 22 21 23 25 25 26 27 27 28 32 35 38 41 42 41 40 40 40 39 38 41 44 45 44 44 46 45 44 45 44 41 39 37 36 37 39 39 39 38 38 38 39 38 37 36 35 33 32 31 31 31
26 27 27 28 30 31 31 32 32 33 34 35 34 31 29 29 29 29 29 28 27 24 23 22 23 24 25 24 24 24 25 25 25 25 24 23 24 25 26 27 27 28 28 30 32 34 38 41 41 40 40 39 39 39 41 45 46 45 45 46 46 46 47 45 42 41 39 38 38 38 39 39 39 39 39 39 38 38 38 36 33 32 31 30 31
26 27 28 29 30 31 32 34 34 35 36 36 36 35 33 31 29 28 28 28 27 26 24 23 23 24 24 24 24 23 23 25 26 26 26 25 24 24 25 26 27 29 30 31 31 32 35 38 40 41 41 40 41 41 41 44 47 47 46 47 48 48 47 45 44 42 40 38 38 38 38 38 39 40 40 39 38 38 38 35 33 31 30 30 31
25 27 28 29 29 30 32 33 35 36 36 37 37 37 37 35 32 29 28 28 28 27 26 25 25 24 24 23 23 22 22 23 24 25 27 26 25 24 24 25 26 29 31 33 32 31 33 35 38 42 44 43 43 44 43 44 47 48 48 48 49 49 48 47 45 42 39 38 38 38 37 36 38 40 40 39 38 38 36 34 32 30 29 30 31
24 25 27 28 29 30 31 32 33 35 36 37 38 38 39 38 36 33 30 29 29 29 29 28 27 26 25 24 23 22 21 22 22 22 24 27 26 25 25 25 25 27 30 34 33 31 33 36 38 41 42 41 42 44 43 43 46 49 48 49 50 50 50 48 44 43 41 38 36 37 37 35 36 38 38 37 36 36 35 33 32 30 30 31 32
25 25 25 25 26 28 29 30 31 33 35 36 37 39 40 40 39 37 34 32 30 30 30 29 29 28 27 25 25 23 22 21 22 22 22 25 27 26 25 25 24 24 26 30 32 32 33 35 38 39 37 38 41 44 45 44 44 46 47 48 48 49 51 48 43 43 44 39 36 37 37 35 35 34 34 34 34 34 34 32 31 31 31 31 32
29 28 27 25 24 25 27 28 29 31 33 34 36 38 39 40 41 40 39 37 34 32 31 31 31 31 30 29 28 26 23 22 21 22 22 23 25 26 26 25 24 23 22 24 28 32 32 32 36 38 36 35 37 41 44 43 41 42 45 47 47 49 50 48 45 45 44 40 38 40 38 36 35 34 33 33 34 34 34 33 32 32 31 32 32
31 32 32 29 26 24 24 26 28 29 31 32 34 36 38 40 41 42 42 41 39 37 35 34 34 34 33 33 32 29 26 24 22 22 22 23 23 25 25 24 23 22 21 20 22 27 30 29 29 32 33 33 34 37 41 42 40 41 45 48 48 48 48 47 47 47 44 41 40 41 40 38 36 35 35 36 36 36 36 34 34 33 33 33 33
32 33 33 32 30 26 23 23 25 26 28 30 32 34 37 39 41 42 42 42 41 41 39 38 37 36 35 36 35 34 31 29 26 24 23 22 22 23 22 22 21 21 20 18 18 19 24 27 26 27 29 31 34 37 39 39 39 41 45 48 48 48 47 48 47 45 43 42 41 41 42 41 38 37 37 38 38 39 39 38 36 36 35 35 33
32 33 33 33 33 30 25 22 21 23 25 27 30 33 35 38 40 41 41 42 43 42 41 40 39 38 37 37 37 36 35 34 31 28 25 22 20 20 20 20 22 22 19 18 17 17 19 25 28 26 25 27 31 34 33 33 35 38 41 44 47 48 48 48 47 45 43 43 43 44 44 44 42 39 38 39 38 37 37 37 36 34 33 33 32
Wind_Direction
291 293 292 288 271 259 265 272 274 265 244 224 219 216 209 203 198 191 186 191 191 190 192 191 209 230 228 233 254 271 277 283 285 287 294 304 311 312 316 319 311 299 293 279 261 256 242 224 214 209 209 187 141 126 131 139 141 134 127 118 108 104 100 92 88 86 86 92 93 96 97 96 101 104 100 96 93 93 93 94 94 94 95 95 94
278 280 284 286 273 259 263 265 266 263 253 236 222 218 214 210 208 205 202 201 200 199 198 207 231 241 243 250 259 267 272 276 278 281 290 300 304 307 313 319 316 303 288 269 254 244 226 216 209 210 209 181 151 140 144 150 154 145 132 121 111 109 109 100 94 92 88 95 103 106 105 105 113 113 105 101 99 98 96 96 97 96 96 96 95
273 276 280 283 278 272 268 262 259 255 254 246 228 223 221 215 214 211 211 213 210 206 207 217 225 223 245 261 263 262 265 269 275 279 285 291 294 303 311 316 318 304 282 263 246 229 216 213 207 210 202 172 159 154 158 162 160 149 138 128 121 119 115 106 95 89 87 98 108 110 110 109 117 120 112 105 106 105 102 98 96 96 96 97 96
276 278 280 282 282 283 280 271 263 252 250 247 236 233 228 221 219 216 215 220 220 215 217 224 219 216 237 258 260 260 261 264 272 276 281 284 286 296 305 313 316 300 274 258 241 223 213 211 207 206 191 172 164 162 167 171 166 153 144 136 131 127 117 107 93 83 86 104 114 112 111 111 118 121 114 106 106 107 106 102 98 97 96 97 98
278 279 281 283 282 283 284 282 277 259 249 246 241 238 233 230 232 232 227 226 226 222 221 228 228 221 229 245 250 251 253 258 265 267 276 282 283 289 297 308 311 295 272 256 240 223 216 214 210 204 187 175 169 167 169 170 169 162 152 146 140 131 120 108 89 77 82 105 118 115 113 116 121 121 115 110 107 107 108 107 104 101 99 97 97
282 282 283 286 283 283 282 281 278 264 254 252 249 243 238 237 240 245 244 239 236 229 225 229 231 227 230 238 243 245 246 251 255 254 262 273 279 282 288 300 304 292 274 255 240 225 220 217 210 202 190 184 176 172 173 170 169 170 164 155 147 136 123 108 86 73 78 102 119 115 114 118 124 124 119 116 113 111 111 111 113 111 107 103 99
288 289 290 289 286 284 283 278 270 261 258 259 257 250 247 244 244 248 250 248 246 242 236 231 229 231 231 232 239 244 246 250 254 253 253 258 268 276 282 291 296 290 274 255 239 228 226 217 208 205 201 196 188 182 180 174 172 177 175 165 158 144 127 111 92 74 76 98 112 114 118 121 125 126 122 122 120 119 116 114 118 121 118 115 109
292 293 293 292 290 286 283 277 269 263 261 263 262 256 255 254 252 252 253 253 252 251 247 237 234 238 236 232 239 244 247 250 253 256 256 253 257 266 274 281 288 288 273 256 242 235 233 219 211 214 215 206 199 198 195 187 183 186 184 176 173 163 150 133 104 81 86 103 111 116 122 124 126 127 127 128 128 127 124 121 124 126 122 116 111
289 292 293 292 293 289 282 275 269 266 263 263 264 261 259 259 259 258 257 257 255 253 250 242 238 243 242 239 243 246 248 249 252 257 257 254 252 255 263 271 280 284 272 259 249 242 237 225 220 224 223 216 212 210 207 202 196 197 192 185 190 184 171 161 138 96 98 112 120 124 128 130 130 130 131 134 136 137 137 137 138 135 126 113 107
290 291 294 293 292 289 282 275 269 267 264 262 262 262 261 262 262 260 258 257 257 252 247 243 242 243 244 243 245 248 249 249 253 257 256 255 253 250 254 262 271 277 271 260 252 247 241 233 230 229 226 221 219 217 213 211 206 204 198 193 199 190 179 183 186 148 116 125 137 139 141 141 136 134 136 139 143 146 148 152 152 147 137 123 113
293 290 290 290 289 287 284 278 272 267 263 258 257 259 262 265 265 263 262 260 259 253 245 243 244 244 244 244 247 249 249 249 251 254 256 257 255 249 248 252 261 269 268 259 253 250 244 238 236 234 231 226 223 221 218 215 211 208 203 202 206 193 187 196 201 192 164 156 158 156 156 155 147 141 142 144 146 149 153 158 159 158 152 140 127
290 285 284 284 284 286 285 281 277 271 265 258 255 256 261 265 267 268 269 265 260 254 247 245 246 247 246 246 248 249 250 251 251 251 254 257 256 251 247 245 252 261 264 260 254 251 246 240 240 237 235 231 226 223 220 219 218 213 208 208 209 199 195 199 200 202 203 194 181 173 170 168 162 154 151 152 151 151 156 161 165 171 166 153 141
290 288 286 284 283 284 285 285 283 278 272 265 259 258 260 264 266 267 268 266 261 255 250 247 248 249 248 248 249 250 252 253 251 249 250 253 253 251 248 243 246 254 261 261 255 250 244 240 239 236 234 232 230 226 221 220 218 214 212 212 211 205 200 200 201 203 210 213 200 192 186 180 176 170 166 165 165 166 169 172 176 180 173 159 147
287 291 290 287 283 283 285 287 285 282 279 273 267 264 263 265 266 267 268 267 263 257 253 250 250 251 251 252 252 252 253 253 252 250 249 248 247 248 247 244 244 248 256 260 256 249 244 241 239 235 231 231 232 229 224 221 218 213 212 213 213 211 206 204 206 203 207 217 215 210 201 188 183 182 180 179 181 184 188 188 183 177 170 159 150
282 285 285 286 287 286 286 286 284 283 282 279 275 272 271 270 269 270 270 267 264 260 257 255 254 254 255 255 255 256 255 252 251 250 249 246 243 243 242 242 244 246 252 257 256 251 245 242 240 236 233 234 235 231 227 223 219 215 211 212 214 214 212 210 211 207 204 214 219 218 208 192 186 187 187 187 188 190 192 192 185 173 165 156 150
283 285 286 287 288 287 286 285 284 284 283 282 281 279 278 276 273 272 270 267 266 266 263 259 255 254 255 253 253 256 257 254 253 253 252 246 242 241 239 239 243 244 248 254 255 252 249 247 243 238 235 235 236 233 228 223 219 216 213 213 212 213 216 213 214 212 203 210 219 217 211 195 186 187 188 187 188 189 190 190 183 170 161 155 151
283 287 290 289 288 286 285 285 286 287 285 284 286 286 284 280 277 275 274 272 272 271 267 263 259 257 256 254 251 250 255 259 259 257 253 247 243 241 237 237 240 242 246 250 252 251 250 249 243 238 236 234 233 231 227 221 219 218 215 215 212 212 216 214 215 213 202 208 220 216 212 203 190 187 187 186 187 189 187 184 178 166 158 154 152
276 282 286 286 286 287 286 286 287 288 289 291 291 290 288 285 283 280 276 275 274 272 270 268 267 264 261 260 259 256 258 262 260 258 257 252 247 242 237 237 239 242 244 247 248 248 249 250 245 238 234 232 229 227 226 221 219 219 217 217 215 214 216 214 214 212 203 210 223 216 212 209 197 189 187 187 188 188 185 178 172 164 158 155 154
264 271 279 282 282 284 286 286 286 288 293 295 292 289 287 287 286 282 279 276 273 271 271 272 270 268 266 265 263 260 258 257 255 258 261 258 251 243 237 236 238 241 243 245 246 247 247 248 247 239 231 228 227 227 227 223 221 221 220 218 217 216 216 213 211 208 205 214 225 217 212 211 202 193 190 191 190 187 182 174 168 164 161 159 158
262 267 274 278 279 280 283 284 285 287 291 291 290 289 289 288 286 284 282 280 276 273 273 272 268 267 267 266 264 261 258 256 254 255 256 256 255 250 241 234 235 239 242 245 247 247 246 246 245 238 228 225 226 230 230 226 224 223 220 219 219 219 217 213 210 207 207 217 223 218 213 211 205 198 194 193 190 185 179 174 169 165 165 164 162
267 272 275 276 275 277 278 281 284 285 284 284 286 290 291 290 288 285 283 280 278 277 276 274 270 268 268 266 264 261 258 256 254 251 251 252 253 253 248 236 233 236 240 242 244 246 245 243 243 238 230 226 227 232 232 228 224 222 220 219 220 219 216 214 211 209 211 218 221 219 214 210 206 202 197 194 190 183 179 177 173 169 169 169 164
268 271 279 282 279 278 279 281 283 282 281 283 287 289 290 291 289 288 287 285 283 280 278 277 274 271 267 264 263 260 257 255 252 248 247 248 250 250 247 241 238 241 242 241 241 242 243 241 241 238 232 229 229 232 235 230 222 221 222 221 221 219 216 214 211 211 215 218 220 219 214 211 208 204 199 194 189 184 180 179 177 175 173 171 166
265 266 273 280 281 280 283 283 282 281 284 289 291 290 290 290 290 291 292 290 289 286 282 281 278 274 270 267 265 262 260 257 254 251 247 247 248 246 244 243 245 248 248 246 244 241 239 238 238 236 233 230 229 232 235 232 224 223 225 224 222 219 217 214 211 212 215 216 217 217 214 213 210 205 200 194 189 185 182 182 181 180 177 173 169
256 260 265 273 279 281 282 282 281 281 285 289 292 292 291 291 290 289 290 291 291 289 287 286 284 280 278 275 270 267 265 262 259 255 251 250 249 246 246 246 247 250 250 248 246 242 239 237 235 233 231 230 230 232 234 233 229 227 227 226 223 220 217 214 212 213 214 214 216 215 214 215 212 206 200 194 190 187 185 185 185 185 182 177 172
249 250 255 262 270 276 281 284 285 286 289 291 291 292 291 290 288 286 286 288 290 289 288 288 287 287 286 283 277 272 272 271 267 260 255 254 251 246 247 248 249 251 250 247 246 243 240 237 233 232 231 230 232 233 233 234 232 229 229 226 221 219 218 216 214 213 211 212 215 214 213 215 213 207 201 195 192 189 188 188 188 188 186 181 176
258 253 254 258 262 269 276 281 285 287 292 295 292 291 293 292 292 292 292 291 290 289 289 289 289 289 290 288 283 277 274 274 270 263 256 253 251 247 247 248 250 249 246 244 246 246 243 238 233 231 230 230 232 235 234 234 233 230 228 223 216 217 219 218 217 213 211 213 214 214 214 215 213 208 201 196 193 192 191 190 191 192 190 186 182
258 256 257 261 264 268 273 278 281 280 282 290 291 292 296 296 294 294 294 294 292 290 290 290 290 288 288 288 285 279 276 276 272 265 258 254 253 252 248 247 248 247 244 243 245 247 248 244 236 232 231 229 230 234 234 234 236 233 227 221 215 215 218 219 219 216 213 214 214 214 214 215 213 209 203 198 195 195 194 193 194 196 194 190 188
258 259 259 261 262 265 270 273 274 274 276 280 284 287 292 296 298 296 293 293 294 293 291 290 288 287 287 287 286 282 280 280 275 269 262 256 252 251 248 245 243 242 241 241 242 244 247 245 239 235 233 229 228 232 234 234 236 234 227 222 219 217 218 220 220 220 217 215 214 214 214 215 213 209 204 200 197 197 197 196 197 199 198 195 194
269 269 268 267 264 263 265 264 264 266 271 276 281 283 285 290 296 297 295 293 294 293 293 293 291 290 289 287 286 284 282 279 274 271 269 262 255 251 248 245 242 239 238 237 239 242 244 243 240 236 233 229 226 228 232 233 235 233 227 223 222 221 223 223 222 221 220 216 214 213 214 214 213 210 206 202 200 200 199 199 200 201 201 200 199
296 290 284 279 272 263 260 260 260 262 265 269 275 279 281 284 286 289 292 293 294 292 292 294 293 293 292 288 285 284 283 281 277 274 271 266 259 254 250 246 242 241 238 236 239 244 245 243 242 238 234 230 226 226 229 232 233 231 226 223 224 224 225 227 225 222 221 218 214 213 214 214 213 211 208 204 202 202 201 201 202 204 204 204 203
340 324 308 297 289 274 265 262 261 262 264 266 269 272 276 280 282 284 287 290 292 292 292 292 293 293 293 290 287 285 285 286 282 279 276 268 261 256 251 247 243 242 241 239 240 244 245 244 242 240 237 233 228 226 228 231 232 230 226 225 227 227 226 228 228 225 222 219 215 213 213 214 213 212 210 207 205 204 203 204 205 205 206 206 204
10 2 349 335 323 306 292 282 276 273 273 272 271 272 274 278 282 283 283 286 290 293 293 292 293 294 293 291 290 289 289 290 286 283 282 276 266 258 253 248 244 241 240 239 239 242 243 244 244 242 239 234 228 225 226 230 230 229 227 228 229 228 227 228 228 227 224 222 217 214 213 214 213 213 211 209 207 206 206 207 207 207 207 207 204
21 16 8 2 352 334 324 317 309 303 297 289 283 281 279 279 282 284 284 285 288 291 292 292 291 292 292 291 290 292 294 292 287 284 284 282 274 264 256 249 244 241 239 237 238 241 242 243 245 244 240 235 229 225 225 227 228 226 226 228 230 229 227 227 228 227 225 223 219 215 213 214 214 214 212 211 208 207 208 209 209 209 209 208 206
27 22 17 11 2 349 340 331 325 321 317 309 303 298 294 289 287 287 287 287 288 288 290 293 292 290 292 293 293 295 296 292 287 284 285 286 280 267 255 248 243 241 241 239 238 239 239 241 244 242 238 234 230 227 225 225 225 223 223 225 226 226 226 227 229 229 226 223 221 217 215 214 215 215 214 213 211 209 210 211 212 212 212 210 208
28 24 20 16 11 3 355 344 335 332 328 322 318 314 309 305 299 296 293 291 290 288 288 292 295 292 290 291 295 297 296 293 291 289 290 290 285 273 261 252 245 243 243 242 239 236 235 240 243 239 235 231 229 227 226 227 226 223 222 223 223 222 223 226 229 231 229 225 220 218 216 215 215 216 215 215 213 211 211 213 214 214 215 213 211
21 19 15 13 13 11 9 4 356 350 345 340 334 328 321 315 310 306 302 297 294 291 287 290 295 295 291 290 294 296 294 290 288 288 288 287 284 279 270 260 252 247 244 241 237 233 232 239 244 241 236 233 230 227 226 227 227 224 222 222 223 222 222 224 228 230 230 227 222 219 217 216 216 216 217 217 216 214 213 214 216 216 217 216 214
16 14 11 9 9 11 14 14 8 2 358 353 349 343 337 330 322 316 311 305 301 296 292 291 293 294 292 291 293 293 292 288 284 285 287 286 286 278 266 258 254 250 243 238 234 231 231 236 241 242 240 236 232 229 226 226 226 225 222 221 221 219 219 222 226 227 227 225 222 219 218 217 217 217 218 218 218 217 216 216 217 217 218 218 216
19 18 17 15 13 13 15 14 10 5 1 357 352 349 345 340 335 330 323 315 308 303 299 294 291 291 290 291 291 290 290 289 287 290 291 290 290 276 257 251 252 249 242 236 232 229 230 234 238 242 241 236 232 229 227 226 226 225 223 221 219 218 218 220 222 224 224 222 220 219 218 217 217 217 218 218 219 219 219 218 219 219 219 219 217
26 24 24 23 20 18 17 15 11 7 2 357 353 351 350 347 344 341 336 328 319 310 305 300 294 291 289 289 291 290 289 289 289 292 291 289 288 277 258 252 251 246 239 233 229 228 230 233 236 239 239 236 233 229 227 227 226 226 225 221 219 218 217 218 221 223 222 220 218 219 218 218 217 217 218 218 219 220 221 221 221 220 220 220 218
32 30 29 28 25 24 22 20 17 13 7 2 358 355 353 352 349 347 344 339 330 319 311 306 300 296 293 290 290 290 289 288 287 289 290 287 284 278 267 259 252 244 235 228 224 226 232 234 235 237 237 235 231 228 227 224 221 223 223 222 220 219 216 216 220 224 223 219 216 216 217 217 218 218 218 218 219 219 221 222 223 223 222 221 220
36 34 33 31 29 27 26 25 24 22 18 14 10 4 358 356 353 350 348 345 340 330 320 312 305 301 298 293 289 287 286 284 283 284 286 285 282 279 272 264 258 252 243 234 227 226 230 233 234 235 235 234 231 227 225 223 222 223 222 220 219 218 216 216 218 221 223 221 217 215 215 215 216 217 218 218 218 218 219 221 222 223 222 222 221
36 35 34 33 32 30 28 27 26 26 25 22 18 12 6 2 358 355 353 350 347 341 331 322 313 306 302 299 294 289 285 282 279 278 278 279 280 278 274 268 261 255 252 249 242 235 232 232 233 234 234 233 232 228 226 226 226 225 221 217 215 215 215 216 217 218 221 221 219 217 215 215 215 216 218 218 218 218 218 218 219 220 221 222 222
35 34 33 32 33 31 29 27 26 26 25 23 20 16 13 8 3 2 1 357 355 352 344 334 326 317 309 305 301 296 290 284 280 278 275 275 276 276 273 269 263 256 252 252 250 243 237 232 232 234 235 235 235 232 228 227 225 223 222 220 216 214 215 216 216 216 217 217 218 218 217 215 215 217 218 218 218 219 219 219 218 218 219 221 222
34 32 31 31 32 31 28 26 24 24 23 20 18 16 15 12 9 8 8 6 4 2 355 346 338 330 321 314 307 300 294 288 284 282 278 273 272 272 271 268 263 256 252 251 250 247 244 240 235 234 234 236 238 236 230 226 224 222 220 220 218 216 217 218 218 217 217 216 215 218 219 218 217 218 219 219 219 220 221 220 219 219 219 220 222
33 30 30 29 29 29 27 25 23 22 21 19 17 15 14 12 10 10 12 13 13 11 6 358 351 344 336 328 317 307 298 291 286 283 280 275 271 270 271 268 262 255 251 251 251 249 249 248 244 239 236 234 236 237 233 227 224 221 218 218 218 218 219 221 220 219 219 217 214 215 218 219 219 220 220 219 219 220 221 220 220 220 221 221 222
32 28 27 27 27 27 26 24 22 20 19 18 16 15 14 12 10 10 11 14 16 16 13 9 4 357 350 343 334 323 311 300 293 287 280 275 271 270 270 267 262 256 250 250 250 249 247 246 246 244 241 237 237 240 240 232 225 222 220 220 220 219 220 223 223 221 220 218 216 214 214 214 215 218 221 220 219 219 219 218 218 219 220 222 223
35 30 27 26 25 25 24 23 22 20 18 16 14 14 13 11 10 10 10 12 14 15 15 14 12 8 1 355 349 340 329 318 309 299 288 278 271 271 272 268 263 261 256 251 249 249 248 247 246 245 243 242 242 241 240 235 230 227 226 226 225 222 221 221 220 220 219 218 216 213 210 209 209 212 217 217 215 216 215 215 217 218 220 222 223
39 35 32 28 24 22 21 20 20 19 17 14 12 11 11 10 9 9 10 10 10 12 13 14 13 12 9 4 358 351 343 333 322 311 299 286 274 271 271 268 263 261 262 256 250 250 251 251 251 248 245 245 245 241 237 235 233 230 229 226 222 218 218 218 217 219 220 217 215 215 213 210 207 208 213 215 213 214 215 216 218 220 221 223 224
37 35 34 31 27 22 19 18 19 17 15 14 12 10 9 8 7 8 8 8 8 9 10 11 11 11 10 8 4 358 353 345 336 325 311 296 281 270 266 263 261 260 262 264 261 255 251 251 254 255 251 248 245 240 235 234 234 231 227 224 219 214 213 214 216 219 220 218 216 216 216 215 210 208 213 216 217 218 219 220 221 222 223 225 227
34 33 32 32 30 26 21 17 16 15 14 13 12 10 8 6 6 6 5 6 7 8 8 9 9 8 8 7 5 2 359 354 347 340 328 312 295 280 268 259 257 258 260 269 278 270 252 245 251 257 254 248 243 239 234 232 234 231 226 224 222 218 215 215 216 218 220 221 220 218 216 217 215 211 213 217 219 221 222 223 224 225 226 226 227
33 32 31 29 29 28 26 19 14 12 13 13 11 10 9 8 6 5 4 4 6 7 7 6 5 4 4 4 4 3 1 357 353 348 340 328 312 295 279 262 255 256 257 263 275 277 256 242 243 248 248 242 241 243 241 236 233 231 229 228 225 221 219 218 218 216 215 217 220 219 216 217 217 215 214 216 217 218 220 223 225 225 226 226 224